{"data":{"norad_id":59653,"intl_designator":"2024-082Y","name":"STARLINK-31764","alt_names":[],"object_type":"PAYLOAD","status":"ACTIVE","operator":null,"country":"US","launch_date":"2024-05-03","launch_site_code":"AFETR","launch_vehicle":null,"mission":null,"orbit_class":"UNKNOWN","rcs_meters":null,"size_class":null,"mass_kg":null,"dimensions":null,"purposes":["comms"],"wikipedia_slug":null,"has_3d_model":false,"image_url":null,"decayed_at":null,"tle_current":{"epoch":"2026-09-20T23:54:41.030208Z","epoch_age_seconds":125354,"freshness":"FRESH","line1":"1 59653U 24082Y   26263.99630822  .00000281  00000+0  19735-4 0  9991","line2":"2 59653  43.0033 116.6354 0001482 263.0760  96.9923 15.27579299134886","mean_motion":15.27579299,"eccentricity":0.0001482,"inclination_deg":43.0033,"raan_deg":116.6354,"arg_perigee_deg":263.076,"mean_anomaly_deg":96.9923,"bstar":1.9735e-5,"rev_number":13488,"period_min":94.266791972284,"perigee_km":482.03436699613,"apogee_km":484.06802317715,"semimajor_km":6861.1881950866,"source":"CELESTRAK","updated_at":"2026-09-22T09:00:49.023837Z"}}}